Time,TemperatureF,DewpointF,PressureIn,WindDirection,WindDirectionDegrees,WindSpeedMPH,WindSpeedGustMPH,Humidity,HourlyPrecipIn,Conditions,Clouds,dailyrainin,SoftwareType,DateUTC
2013-02-21 00:00:00,14.9,8.4,30.32,WSW,253,0.0,0.0,75,0.00,,CLR,0.00,VWS V14.00,2013-02-21 06:00:00,
2013-02-21 00:10:00,15.1,8.6,30.32,WSW,253,0.0,0.0,75,0.00,,CLR,0.00,VWS V14.00,2013-02-21 06:10:00,
2013-02-21 00:20:00,15.1,8.9,30.32,WSW,253,0.0,0.0,76,0.00,,CLR,0.00,VWS V14.00,2013-02-21 06:20:00,
2013-02-21 00:30:00,15.1,8.9,30.32,WSW,253,0.0,0.0,76,0.00,,CLR,0.00,VWS V14.00,2013-02-21 06:30:00,
2013-02-21 00:40:00,15.3,9.1,30.32,WSW,253,0.0,0.0,76,0.00,,CLR,0.00,VWS V14.00,2013-02-21 06:40:00,
2013-02-21 00:50:00,15.3,9.1,30.32,WSW,253,0.0,0.0,76,0.00,,CLR,0.00,VWS V14.00,2013-02-21 06:50:00,
2013-02-21 01:00:00,15.1,8.9,30.35,WSW,253,0.0,0.0,76,0.00,,CLR,0.00,VWS V14.00,2013-02-21 07:00:00,
2013-02-21 01:10:00,15.3,9.4,30.35,WSW,253,0.0,0.0,77,0.00,,CLR,0.00,VWS V14.00,2013-02-21 07:10:00,
2013-02-21 01:20:00,15.3,9.4,30.35,WSW,253,0.0,0.0,77,0.00,,CLR,0.00,VWS V14.00,2013-02-21 07:20:00,
2013-02-21 01:30:00,15.3,9.4,30.32,WSW,253,0.0,0.0,77,0.00,,CLR,0.00,VWS V14.00,2013-02-21 07:30:00,
2013-02-21 01:40:00,15.1,9.5,30.32,WSW,253,0.0,0.0,78,0.00,,CLR,0.00,VWS V14.00,2013-02-21 07:40:00,
2013-02-21 01:50:00,15.1,9.5,30.32,WSW,253,0.0,0.0,78,0.00,,CLR,0.00,VWS V14.00,2013-02-21 07:50:00,
2013-02-21 02:00:00,15.1,9.5,30.32,WSW,253,0.0,0.0,78,0.00,,CLR,0.00,VWS V14.00,2013-02-21 08:00:00,
2013-02-21 02:10:00,15.1,9.2,30.32,WSW,253,0.0,0.0,77,0.00,,CLR,0.00,VWS V14.00,2013-02-21 08:10:00,
2013-02-21 02:20:00,15.4,9.2,30.32,WSW,253,0.0,0.0,76,0.00,,CLR,0.00,VWS V14.00,2013-02-21 08:20:00,
2013-02-21 02:30:00,15.4,8.9,30.32,WSW,253,0.0,0.0,75,0.00,,CLR,0.00,VWS V14.00,2013-02-21 08:30:00,
2013-02-21 02:40:00,15.4,8.9,30.32,WSW,253,0.0,0.0,75,0.00,,CLR,0.00,VWS V14.00,2013-02-21 08:40:00,
2013-02-21 02:50:00,15.3,8.8,30.32,WSW,253,0.0,0.0,75,0.00,,CLR,0.00,VWS V14.00,2013-02-21 08:50:00,
2013-02-21 03:00:00,15.4,9.2,30.32,WSW,253,0.0,0.0,76,0.00,,CLR,0.00,VWS V14.00,2013-02-21 09:00:00,
2013-02-21 03:10:00,15.3,9.1,30.32,WSW,253,0.0,0.0,76,0.00,,CLR,0.00,VWS V14.00,2013-02-21 09:10:00,
2013-02-21 03:20:00,15.3,9.4,30.32,WSW,253,0.0,0.0,77,0.00,,CLR,0.00,VWS V14.00,2013-02-21 09:20:00,
2013-02-21 03:30:00,15.4,9.5,30.32,WSW,253,0.0,0.0,77,0.00,,CLR,0.00,VWS V14.00,2013-02-21 09:30:00,
2013-02-21 03:40:00,15.8,9.9,30.32,WSW,253,0.0,0.0,77,0.00,,CLR,0.00,VWS V14.00,2013-02-21 09:40:00,
2013-02-21 03:50:00,16.2,9.9,30.32,WSW,253,4.5,7.2,76,0.00,,CLR,0.00,VWS V14.00,2013-02-21 09:50:00,
2013-02-21 04:00:00,16.2,9.9,30.32,WSW,253,7.2,7.2,76,0.00,,CLR,0.00,VWS V14.00,2013-02-21 10:00:00,
2013-02-21 04:10:00,16.3,10.1,30.32,WSW,253,4.5,9.8,76,0.00,,CLR,0.00,VWS V14.00,2013-02-21 10:10:00,
2013-02-21 04:20:00,16.5,10.3,30.32,WSW,253,0.0,7.2,76,0.00,,CLR,0.00,VWS V14.00,2013-02-21 10:20:00,
2013-02-21 04:30:00,16.7,10.5,30.35,WSW,253,5.4,9.8,76,0.00,,CLR,0.00,VWS V14.00,2013-02-21 10:30:00,
2013-02-21 04:40:00,16.9,10.6,30.32,WSW,253,7.2,10.7,76,0.00,,CLR,0.00,VWS V14.00,2013-02-21 10:40:00,
2013-02-21 04:50:00,16.9,10.6,30.32,WSW,253,4.5,11.6,76,0.00,,CLR,0.00,VWS V14.00,2013-02-21 10:50:00,
2013-02-21 05:00:00,16.9,10.3,30.32,WSW,253,0.0,7.2,75,0.00,,CLR,0.00,VWS V14.00,2013-02-21 11:00:00,
2013-02-21 05:10:00,16.9,10.0,30.32,WSW,253,0.0,0.0,74,0.00,,CLR,0.00,VWS V14.00,2013-02-21 11:10:00,
2013-02-21 05:20:00,17.4,10.3,30.32,WSW,253,0.0,0.0,73,0.00,,CLR,0.00,VWS V14.00,2013-02-21 11:20:00,
2013-02-21 05:30:00,17.8,10.6,30.35,WSW,253,6.3,7.2,73,0.00,,OVC024,0.00,VWS V14.00,2013-02-21 11:30:00,
2013-02-21 05:40:00,18.1,10.6,30.29,WSW,253,5.4,6.3,72,0.00,,OVC024,0.00,VWS V14.00,2013-02-21 11:40:00,
2013-02-21 05:50:00,18.3,10.8,30.29,WSW,253,4.5,8.1,72,0.00,,OVC022,0.00,VWS V14.00,2013-02-21 11:50:00,
2013-02-21 06:00:00,18.3,11.1,30.29,WSW,253,0.0,8.1,73,0.00,,OVC022,0.00,VWS V14.00,2013-02-21 12:00:00,
2013-02-21 06:10:00,18.5,11.3,30.29,WSW,253,4.5,8.1,73,0.00,,OVC022,0.00,VWS V14.00,2013-02-21 12:10:00,
2013-02-21 06:20:00,18.5,11.3,30.29,WSW,253,0.0,6.3,73,0.00,,OVC022,0.00,VWS V14.00,2013-02-21 12:20:00,
2013-02-21 06:30:00,18.7,11.5,30.32,WSW,253,0.0,0.0,73,0.00,,OVC020,0.00,VWS V14.00,2013-02-21 12:30:00,
2013-02-21 06:40:00,19.0,11.8,30.32,WSW,253,0.0,0.0,73,0.00,,OVC020,0.00,VWS V14.00,2013-02-21 12:40:00,
2013-02-21 06:50:00,19.0,12.1,30.32,WSW,253,5.4,6.3,74,0.00,,OVC018,0.00,VWS V14.00,2013-02-21 12:50:00,
2013-02-21 07:00:00,19.2,12.3,30.32,WSW,253,0.0,5.4,74,0.00,,OVC018,0.00,VWS V14.00,2013-02-21 13:00:00,
2013-02-21 07:10:00,19.6,12.6,30.32,WSW,253,0.0,6.3,74,0.00,,OVC018,0.00,VWS V14.00,2013-02-21 13:10:00,
2013-02-21 07:20:00,19.9,13.3,30.32,WSW,253,6.3,8.1,75,0.00,,OVC018,0.00,VWS V14.00,2013-02-21 13:20:00,
2013-02-21 07:30:00,20.3,13.7,30.32,WSW,253,5.4,11.6,75,0.00,,OVC018,0.00,VWS V14.00,2013-02-21 13:30:00,
2013-02-21 07:40:00,20.5,14.1,30.32,WSW,253,9.8,12.5,76,0.00,,OVC016,0.00,VWS V14.00,2013-02-21 13:40:00,
2013-02-21 07:50:00,21.0,14.9,30.32,WSW,253,0.0,9.8,77,0.00,,OVC016,0.00,VWS V14.00,2013-02-21 13:50:00,
2013-02-21 08:00:00,21.2,15.1,30.29,WSW,253,6.3,12.5,77,0.00,,OVC016,0.00,VWS V14.00,2013-02-21 14:00:00,
2013-02-21 08:10:00,21.7,15.6,30.29,WSW,253,5.4,10.7,77,0.00,,OVC016,0.00,VWS V14.00,2013-02-21 14:10:00,
2013-02-21 08:20:00,22.1,16.3,30.29,WSW,253,5.4,9.8,78,0.00,,OVC016,0.00,VWS V14.00,2013-02-21 14:20:00,
2013-02-21 08:30:00,22.6,16.8,30.29,WSW,253,4.5,11.6,78,0.00,,OVC016,0.00,VWS V14.00,2013-02-21 14:30:00,
2013-02-21 08:40:00,23.0,17.2,30.32,WSW,253,0.0,10.7,78,0.00,,OVC014,0.00,VWS V14.00,2013-02-21 14:40:00,
2013-02-21 08:50:00,23.5,17.7,30.32,WSW,253,0.0,8.1,78,0.00,,OVC012,0.00,VWS V14.00,2013-02-21 14:50:00,
2013-02-21 09:00:00,23.9,18.0,30.32,WSW,254,5.4,9.8,78,0.00,,OVC012,0.00,VWS V14.00,2013-02-21 15:00:00,
2013-02-21 09:10:00,24.1,18.2,30.29,WSW,254,8.1,14.3,78,0.00,,OVC012,0.00,VWS V14.00,2013-02-21 15:10:00,
2013-02-21 09:20:00,24.6,18.8,30.29,WSW,254,6.3,12.5,78,0.00,,OVC012,0.00,VWS V14.00,2013-02-21 15:20:00,
2013-02-21 09:30:00,25.0,19.1,30.29,WSW,254,7.2,11.6,78,0.00,,OVC012,0.00,VWS V14.00,2013-02-21 15:30:00,
2013-02-21 09:40:00,25.3,19.5,30.32,WSW,254,12.5,13.4,78,0.00,,OVC012,0.00,VWS V14.00,2013-02-21 15:40:00,
2013-02-21 09:50:00,25.7,19.8,30.32,WSW,254,7.2,12.5,78,0.00,,OVC012,0.00,VWS V14.00,2013-02-21 15:50:00,
2013-02-21 10:00:00,25.7,19.5,30.32,WSW,254,9.8,11.6,77,0.00,,OVC012,0.00,VWS V14.00,2013-02-21 16:00:00,
2013-02-21 10:10:00,25.9,19.7,30.29,WSW,254,7.2,11.6,77,0.00,,OVC012,0.00,VWS V14.00,2013-02-21 16:10:00,
2013-02-21 10:20:00,26.1,19.9,30.29,WSW,254,5.4,12.5,77,0.00,,OVC012,0.00,VWS V14.00,2013-02-21 16:20:00,
2013-02-21 10:30:00,26.6,20.4,30.29,WSW,254,10.7,15.2,77,0.00,,OVC012,0.00,VWS V14.00,2013-02-21 16:30:00,
2013-02-21 10:40:00,26.8,20.5,30.29,WSW,254,5.4,12.5,77,0.00,,OVC012,0.00,VWS V14.00,2013-02-21 16:40:00,
2013-02-21 10:50:00,27.1,20.9,30.29,WSW,254,7.2,16.6,77,0.00,,OVC012,0.00,VWS V14.00,2013-02-21 16:50:00,
2013-02-21 11:00:00,27.3,21.1,30.29,WSW,254,5.4,12.5,77,0.00,,OVC012,0.00,VWS V14.00,2013-02-21 17:00:00,
2013-02-21 11:10:00,27.5,21.2,30.26,WSW,254,9.8,12.5,77,0.00,,OVC012,0.00,VWS V14.00,2013-02-21 17:10:00,
2013-02-21 11:20:00,28.0,21.8,30.26,WSW,254,7.2,16.1,77,0.00,,OVC012,0.00,VWS V14.00,2013-02-21 17:20:00,
2013-02-21 11:30:00,28.6,22.0,30.26,WSW,254,5.4,12.5,76,0.00,,OVC015,0.00,VWS V14.00,2013-02-21 17:30:00,
2013-02-21 11:40:00,28.8,22.2,30.26,WSW,254,6.3,11.6,76,0.00,,OVC015,0.00,VWS V14.00,2013-02-21 17:40:00,
2013-02-21 11:50:00,29.5,22.5,30.26,WSW,255,10.7,16.6,75,0.00,,OVC010,0.00,VWS V14.00,2013-02-21 17:50:00,
2013-02-21 12:00:00,29.8,22.9,30.23,WSW,255,8.1,16.1,75,0.00,,OVC010,0.00,VWS V14.00,2013-02-21 18:00:00,
2013-02-21 12:10:00,29.8,22.9,30.23,WSW,255,10.7,14.3,75,0.00,,OVC010,0.00,VWS V14.00,2013-02-21 18:10:00,
2013-02-21 12:20:00,30.0,22.8,30.23,WSW,255,11.6,16.6,74,0.00,,OVC010,0.00,VWS V14.00,2013-02-21 18:20:00,
2013-02-21 12:30:00,30.4,23.1,30.23,West,259,12.5,19.2,74,0.00,,OVC010,0.00,VWS V14.00,2013-02-21 18:30:00,
2013-02-21 12:40:00,30.4,23.1,30.20,NE,40,11.6,17.4,74,0.00,,OVC010,0.00,VWS V14.00,2013-02-21 18:40:00,
2013-02-21 12:50:00,30.4,23.1,30.20,NE,40,7.2,16.6,74,0.00,,OVC008,0.00,VWS V14.00,2013-02-21 18:50:00,
2013-02-21 13:00:00,30.6,23.3,30.17,NE,41,10.7,20.1,74,0.00,,OVC008,0.00,VWS V14.00,2013-02-21 19:00:00,
2013-02-21 13:10:00,30.2,22.9,30.14,NE,37,7.2,16.6,74,0.00,,OVC008,0.00,VWS V14.00,2013-02-21 19:10:00,
2013-02-21 13:20:00,30.0,22.8,30.14,NE,35,10.7,16.1,74,0.00,,OVC008,0.00,VWS V14.00,2013-02-21 19:20:00,
2013-02-21 13:30:00,30.2,23.2,30.14,NNE,31,8.1,16.1,75,0.00,,OVC008,0.00,VWS V14.00,2013-02-21 19:30:00,
2013-02-21 13:40:00,30.7,23.8,30.14,NE,34,11.6,17.4,75,0.00,,OVC008,0.00,VWS V14.00,2013-02-21 19:40:00,
2013-02-21 13:50:00,30.7,23.8,30.14,NE,34,9.8,13.4,75,0.00,,OVC008,0.00,VWS V14.00,2013-02-21 19:50:00,
2013-02-21 14:00:00,30.6,23.6,30.14,NE,34,11.6,16.1,75,0.00,,OVC008,0.00,VWS V14.00,2013-02-21 20:00:00,
2013-02-21 14:10:00,30.4,23.7,30.17,NNE,33,11.6,12.5,76,0.00,,OVC008,0.00,VWS V14.00,2013-02-21 20:10:00,
2013-02-21 14:20:00,30.6,23.9,30.17,NNE,33,8.1,12.5,76,0.00,,OVC008,0.00,VWS V14.00,2013-02-21 20:20:00,
2013-02-21 14:30:00,30.4,23.7,30.17,NNE,33,8.1,16.1,76,0.00,,OVC008,0.00,VWS V14.00,2013-02-21 20:30:00,
2013-02-21 14:40:00,30.2,23.9,30.17,NNE,32,5.4,16.6,77,0.00,,OVC010,0.00,VWS V14.00,2013-02-21 20:40:00,
2013-02-21 14:50:00,30.4,24.0,30.17,NNE,32,6.3,16.6,77,0.00,,OVC010,0.00,VWS V14.00,2013-02-21 20:50:00,
2013-02-21 15:00:00,30.6,24.2,30.17,NE,45,9.8,19.2,77,0.00,,OVC010,0.00,VWS V14.00,2013-02-21 21:00:00,
2013-02-21 15:10:00,30.6,24.2,30.17,NE,46,9.8,22.8,77,0.00,,OVC010,0.00,VWS V14.00,2013-02-21 21:10:00,
2013-02-21 15:20:00,30.4,24.0,30.17,NE,46,10.7,20.1,77,0.00,,OVC010,0.00,VWS V14.00,2013-02-21 21:20:00,
2013-02-21 15:30:00,30.2,23.9,30.17,NE,47,11.6,19.2,77,0.00,,OVC010,0.00,VWS V14.00,2013-02-21 21:30:00,
2013-02-21 15:40:00,30.2,23.9,30.14,East,79,12.5,25.5,77,0.00,,OVC010,0.00,VWS V14.00,2013-02-21 21:40:00,
2013-02-21 15:50:00,30.0,23.7,30.14,East,79,11.6,21.9,77,0.00,,OVC010,0.00,VWS V14.00,2013-02-21 21:50:00,
2013-02-21 16:00:00,29.5,23.5,30.14,East,79,20.1,21.0,78,0.00,,OVC010,0.00,VWS V14.00,2013-02-21 22:00:00,
2013-02-21 16:10:00,29.1,23.1,30.14,East,79,12.5,24.6,78,0.00,,OVC010,0.00,VWS V14.00,2013-02-21 22:10:00,
2013-02-21 16:20:00,28.9,23.3,30.14,ENE,78,11.6,26.4,79,0.00,,OVC010,0.00,VWS V14.00,2013-02-21 22:20:00,
2013-02-21 16:30:00,28.6,22.9,30.14,ENE,78,12.5,21.9,79,0.00,,OVC010,0.00,VWS V14.00,2013-02-21 22:30:00,
2013-02-21 16:40:00,28.6,22.9,30.11,ENE,78,16.1,21.9,79,0.00,,OVC008,0.00,VWS V14.00,2013-02-21 22:40:00,
2013-02-21 16:50:00,28.6,22.9,30.11,ENE,78,12.5,26.4,79,0.00,,OVC010,0.00,VWS V14.00,2013-02-21 22:50:00,
2013-02-21 17:00:00,28.6,22.9,30.11,ENE,78,16.6,21.9,79,0.00,,OVC010,0.00,VWS V14.00,2013-02-21 23:00:00,
2013-02-21 17:10:00,28.6,22.9,30.11,ENE,77,17.4,25.5,79,0.00,,OVC010,0.00,VWS V14.00,2013-02-21 23:10:00,
2013-02-21 17:20:00,28.6,22.9,30.11,ENE,76,23.7,30.0,79,0.00,,OVC010,0.00,VWS V14.00,2013-02-21 23:20:00,
2013-02-21 17:30:00,28.6,22.9,30.11,ENE,76,15.2,25.5,79,0.00,,OVC010,0.00,VWS V14.00,2013-02-21 23:30:00,
2013-02-21 17:40:00,28.6,22.9,30.11,ENE,75,16.1,26.4,79,0.00,,OVC010,0.00,VWS V14.00,2013-02-21 23:40:00,
2013-02-21 17:50:00,28.6,22.9,30.11,ENE,74,11.6,25.5,79,0.00,,OVC010,0.00,VWS V14.00,2013-02-21 23:50:00,
2013-02-21 18:00:00,28.6,22.9,30.08,ENE,74,21.9,28.2,79,0.00,,OVC010,0.00,VWS V14.00,2013-02-22 00:00:00,
2013-02-21 18:10:00,28.6,22.9,30.08,ENE,74,12.5,21.9,79,0.00,,OVC012,0.00,VWS V14.00,2013-02-22 00:10:00,
2013-02-21 18:20:00,28.6,22.9,30.08,ENE,74,12.5,21.9,79,0.00,,OVC012,0.00,VWS V14.00,2013-02-22 00:20:00,
2013-02-21 18:30:00,28.6,22.9,30.08,ENE,74,21.0,26.4,79,0.00,,OVC012,0.00,VWS V14.00,2013-02-22 00:30:00,
2013-02-21 18:40:00,28.6,22.9,30.08,ENE,73,15.2,30.0,79,0.00,,OVC012,0.00,VWS V14.00,2013-02-22 00:40:00,
2013-02-21 18:50:00,28.6,22.9,30.08,ENE,68,16.6,34.0,79,0.00,,OVC012,0.00,VWS V14.00,2013-02-22 00:50:00,
2013-02-21 19:00:00,28.6,22.9,30.08,ENE,68,21.9,29.1,79,0.00,,OVC012,0.00,VWS V14.00,2013-02-22 01:00:00,
2013-02-21 19:10:00,28.6,22.9,30.08,ENE,69,17.4,30.0,79,0.00,,OVC014,0.00,VWS V14.00,2013-02-22 01:10:00,
2013-02-21 19:20:00,28.6,22.9,30.08,ENE,70,15.2,27.3,79,0.00,,OVC014,0.00,VWS V14.00,2013-02-22 01:20:00,
2013-02-21 19:30:00,28.6,22.9,30.05,ENE,71,16.6,29.1,79,0.00,,OVC016,0.00,VWS V14.00,2013-02-22 01:30:00,
2013-02-21 19:40:00,28.6,22.9,30.05,ENE,72,16.6,30.9,79,0.00,,OVC016,0.00,VWS V14.00,2013-02-22 01:40:00,
2013-02-21 19:50:00,28.6,22.9,30.05,ENE,72,30.0,30.9,79,0.00,,OVC016,0.00,VWS V14.00,2013-02-22 01:50:00,
2013-02-21 20:00:00,28.6,22.9,30.02,ENE,73,24.6,30.0,79,0.00,,OVC018,0.00,VWS V14.00,2013-02-22 02:00:00,
2013-02-21 20:10:00,28.6,22.9,29.99,ENE,72,17.4,32.7,79,0.00,,OVC018,0.00,VWS V14.00,2013-02-22 02:10:00,
2013-02-21 20:20:00,28.6,22.9,29.99,ENE,71,16.6,35.8,79,0.00,,OVC018,0.00,VWS V14.00,2013-02-22 02:20:00,
2013-02-21 20:30:00,28.6,22.9,29.99,East,79,15.2,34.9,79,0.00,,OVC018,0.00,VWS V14.00,2013-02-22 02:30:00,
2013-02-21 20:40:00,28.6,22.9,29.99,ENE,78,21.9,30.0,79,0.00,,OVC018,0.00,VWS V14.00,2013-02-22 02:40:00,
2013-02-21 20:50:00,28.6,22.9,29.99,ENE,76,17.4,30.0,79,0.00,,OVC018,0.00,VWS V14.00,2013-02-22 02:50:00,
2013-02-21 21:00:00,28.6,22.9,29.96,ENE,74,16.1,30.9,79,0.00,,OVC018,0.00,VWS V14.00,2013-02-22 03:00:00,
2013-02-21 21:10:00,28.6,22.9,29.96,ENE,72,16.6,30.9,79,0.00,,OVC018,0.00,VWS V14.00,2013-02-22 03:10:00,
2013-02-21 21:20:00,28.6,22.9,29.96,ENE,71,12.5,29.1,79,0.00,,OVC018,0.00,VWS V14.00,2013-02-22 03:20:00,
2013-02-21 21:30:00,25.5,20.5,29.96,ENE,70,16.6,26.4,81,0.00,,OVC018,0.00,VWS V14.00,2013-02-22 03:30:00,
2013-02-21 21:40:00,25.5,20.5,29.96,East,85,16.1,33.6,81,0.00,,OVC018,0.00,VWS V14.00,2013-02-22 03:40:00,
2013-02-21 21:50:00,25.5,20.5,29.96,East,83,16.1,30.0,81,0.00,,OVC060,0.00,VWS V14.00,2013-02-22 03:50:00,
2013-02-21 22:00:00,25.5,20.5,29.96,East,82,16.6,27.3,81,0.00,,OVC060,0.00,VWS V14.00,2013-02-22 04:00:00,
2013-02-21 22:10:00,25.5,20.5,29.96,East,80,16.1,25.5,81,0.00,,OVC060,0.00,VWS V14.00,2013-02-22 04:10:00,
2013-02-21 22:20:00,25.5,20.5,29.96,East,80,16.1,25.5,81,0.00,,OVC060,0.00,VWS V14.00,2013-02-22 04:20:00,
2013-02-21 22:30:00,25.5,20.5,29.96,East,80,16.6,21.9,81,0.00,,OVC060,0.00,VWS V14.00,2013-02-22 04:30:00,
2013-02-21 22:40:00,25.5,20.5,29.93,East,80,20.1,26.4,81,0.00,,,0.00,VWS V14.00,2013-02-22 04:40:00,
2013-02-21 22:50:00,25.5,20.5,29.93,East,79,9.8,20.1,81,0.00,,,0.00,VWS V14.00,2013-02-22 04:50:00,
2013-02-21 23:00:00,25.5,20.5,29.93,East,79,8.1,34.0,81,0.00,,,0.00,VWS V14.00,2013-02-22 05:00:00,
2013-02-21 23:10:00,25.5,20.5,29.93,East,79,5.4,20.1,81,0.00,,,0.00,VWS V14.00,2013-02-22 05:10:00,
2013-02-21 23:20:00,25.5,20.5,29.93,East,79,15.2,21.0,81,0.00,,,0.00,VWS V14.00,2013-02-22 05:20:00,
2013-02-21 23:30:00,25.5,20.5,29.93,East,79,11.6,21.0,81,0.00,,,0.00,VWS V14.00,2013-02-22 05:30:00,
2013-02-21 23:40:00,25.2,22.9,29.93,East,79,13.4,21.0,91,0.00,,,0.00,VWS V14.00,2013-02-22 05:40:00,
2013-02-21 23:50:00,25.2,23.2,29.93,East,79,7.2,21.9,92,0.00,,,0.00,VWS V14.00,2013-02-22 05:50:00,